Weather History for KBGM - April, 2013

Change the Weather History Date:

Wednesday, April 3, 2013

  Actual Average Record
Temperature  
Mean Temperature 28 °F 40 °F  
Max Temperature 33 °F 49 °F 79 °F (1963)
Min Temperature 22 °F 31 °F 12 °F (1954)
Degree Days  
Heating Degree Days 37 25  
Month to date heating degree days 108 77  
Since 1 July heating degree days 6063 6273  
Cooling Degree Days 0 0  
Month to date cooling degree days 0 0  
Year to date cooling degree days 0 0  
Moisture  
Dew Point 13 °F    
Average Humidity 58    
Maximum Humidity 74    
Minimum Humidity 41    
Precipitation  
Precipitation T in 0.12 in 2.27 in (2000)
Month to date precipitation 0.18 0.35  
Year to date precipitation 6.63 8.10  
Snow  
Snow 0.20 in 0.20 in 2.20 in (1996)
Month to date snowfall 0.9 0.7  
Since 1 July snowfall 69.1 79.7  
Snow Depth T in    
Sea Level Pressure  
Sea Level Pressure 30.17 in    
Wind  
Wind Speed 12 mph (WNW)    
Max Wind Speed 22 mph    
Max Gust Speed 33 mph    
Visibility 9 miles    
Events Snow    
T = Trace of Precipitation, MM = Missing Value Source: NWS Daily Summary

Daily Weather History Graph

Daily Weather History Graph

Search for Another Location

Airport or City:

Trip Planner

Search our weather history database for the weather conditions in past years. The results will help you decide how hot, cold, wet, or windy it might be!

Date:

Astronomy

Apr. 03, 2013 Rise Set
Actual Time 6:42 AM EDT 7:32 PM EDT
Civil Twilight 6:14 AM EDT 8:00 PM EDT
Nautical Twilight 5:40 AM EDT 8:34 PM EDT
Astronomical Twilight 5:05 AM EDT 9:09 PM EDT
Moon 2:28 AM EDT 12:35 PM EDT
Length of Visible Light 13h 46m
Length of Day
12h 49m
Last Quarter, 45% of the Moon is Illuminated
Apr 3
Last Quarter
Apr 10
New
Apr 18
First Quarter
Apr 25
Full
May 2
Last Quarter

Hourly Weather History & Observations

Time (EDT) Temp. Windchill Dew Point Humidity Pressure Visibility Wind Dir Wind Speed Gust Speed Precip Events Conditions
12:09 AM 24.8 °F 14.0 °F 15.8 °F 69% 30.01 in 10.0 mi West 11.5 mph - N/A   Mostly Cloudy
12:21 AM 24.8 °F 13.4 °F 15.8 °F 69% 30.01 in 10.0 mi West 12.7 mph - N/A   Scattered Clouds
4:53 AM 24.1 °F 12.0 °F 12.0 °F 60% 30.07 in 10.0 mi WNW 13.8 mph 23.0 mph N/A   Overcast
5:53 AM 24.1 °F 13.7 °F 12.0 °F 60% 30.09 in 10.0 mi WNW 10.4 mph 24.2 mph 0.00 in Snow Light Snow
6:53 AM 23.0 °F 13.9 °F 15.1 °F 72% 30.12 in 3.0 mi WNW 8.1 mph - 0.00 in Snow Light Snow
7:00 AM 21.2 °F 10.9 °F 15.8 °F 80% 30.06 in 2.0 mi WNW 9.2 mph - 0.00 in Snow Light Snow
7:44 AM 23.0 °F 13.1 °F 15.8 °F 74% 30.08 in 9.0 mi WNW 9.2 mph - 0.00 in Snow Light Snow
7:53 AM 23.0 °F 10.6 °F 16.0 °F 74% 30.14 in 3.0 mi WNW 13.8 mph 19.6 mph 0.00 in Snow Light Snow
8:53 AM 25.0 °F 12.2 °F 14.0 °F 63% 30.14 in 10.0 mi WNW 16.1 mph 24.2 mph 0.00 in   Mostly Cloudy
9:53 AM 27.0 °F 15.2 °F 12.9 °F 56% 30.15 in 10.0 mi NW 15.0 mph 21.9 mph 0.00 in   Mostly Cloudy
10:06 AM 26.6 °F 16.2 °F 12.2 °F 55% 30.09 in 10.0 mi WNW 11.5 mph 25.3 mph N/A   Mostly Cloudy
10:15 AM 26.6 °F 14.3 °F 12.2 °F 55% 30.09 in 10.0 mi NW 16.1 mph 21.9 mph N/A   Mostly Cloudy
10:53 AM 28.0 °F 16.5 °F 12.0 °F 51% 30.15 in 9.0 mi WNW 15.0 mph - 0.00 in Snow Light Snow
11:29 AM 26.6 °F 14.7 °F 17.6 °F 69% 30.11 in 1.5 mi WNW 15.0 mph 23.0 mph 0.00 in Snow Light Snow
11:33 AM 26.6 °F 14.3 °F 17.6 °F 69% 30.11 in 4.0 mi NW 16.1 mph 24.2 mph 0.00 in Snow Light Snow
11:43 AM 28.4 °F 17.5 °F 15.8 °F 59% 30.11 in 10.0 mi WNW 13.8 mph 21.9 mph 0.00 in Snow Light Snow
11:53 AM 30.0 °F 18.3 °F 15.1 °F 54% 30.17 in 10.0 mi West 17.3 mph 23.0 mph 0.00 in   Overcast
12:53 PM 28.9 °F 18.2 °F 10.9 °F 47% 30.18 in 10.0 mi NW 13.8 mph 21.9 mph 0.00 in   Overcast
1:53 PM 30.0 °F 20.5 °F 10.9 °F 45% 30.19 in 10.0 mi WNW 11.5 mph 23.0 mph N/A   Overcast
2:53 PM 33.1 °F 24.4 °F 12.0 °F 42% 30.19 in 10.0 mi NW 11.5 mph 19.6 mph N/A   Overcast
3:53 PM 30.0 °F 20.5 °F 15.1 °F 54% 30.21 in 10.0 mi NW 11.5 mph 28.8 mph N/A   Mostly Cloudy
4:53 PM 30.0 °F 18.7 °F 12.9 °F 49% 30.22 in 10.0 mi NW 16.1 mph 23.0 mph 0.00 in   Overcast
5:53 PM 30.9 °F 21.7 °F 12.0 °F 46% 30.24 in 10.0 mi NW 11.5 mph 21.9 mph N/A   Mostly Cloudy
6:53 PM 28.9 °F 19.8 °F 12.0 °F 49% 30.26 in 10.0 mi NW 10.4 mph 17.3 mph N/A   Mostly Cloudy
7:53 PM 28.0 °F 18.6 °F 10.9 °F 49% 30.29 in 10.0 mi WNW 10.4 mph 18.4 mph N/A   Partly Cloudy
8:53 PM 27.0 °F 18.7 °F 12.0 °F 53% 30.31 in 10.0 mi West 8.1 mph - N/A   Mostly Cloudy
9:53 PM 27.0 °F 18.0 °F 12.0 °F 53% 30.33 in 10.0 mi West 9.2 mph - N/A   Scattered Clouds
10:53 PM 27.0 °F 17.3 °F 12.0 °F 53% 30.34 in 10.0 mi WNW 10.4 mph - N/A   Mostly Cloudy
11:53 PM 26.1 °F 17.6 °F 12.9 °F 58% 30.35 in 10.0 mi West 8.1 mph - N/A   Clear